[[{"header":{"parameterUnit":"m.s-1","parameterCategory":1,"la1":30.2991,"la2":30.254,"lo1":-89.0895,"lo2":-89.0444,"dy":0.0017,"dx":0.0017,"nx":28,"ny":28,"refTime":"2024-08-01T21:00:00:Z","depth":0,"parameterNumber":2,"parameterNumberName":"U-component_of_WINDS"},"data":[0,0,0,0,0,0,0,0,0,0,0,0,0,0,0,0,0,0,0,0,0,0,0,0,0,0,0,0,0,0,0,0,0,0,0,0,0,0,0,0,0,0,0,0,0,0,0,0,0,0,0,0,0,0,0,0,0,0,1.3425,1.3424,0,1.3417,1.3417,1.3417,1.3431,1.3431,1.3432,1.3432,1.3423,1.3422,1.3421,0,0,0,0,0,0,0,0,0,0,0,0,0,1.3451,1.345,1.3425,1.3424,1.3424,1.3417,1.3417,1.3417,1.3431,1.3431,1.3432,1.3432,1.3423,1.3422,1.3421,0,0,0,0,0,0,0,0,0,0,0,0,0,1.3441,1.345,1.3425,1.343,1.3431,1.3417,1.3417,1.3417,1.343,1.3431,1.3432,1.3433,1.3423,1.3422,1.3421,1.3401,0,0,1.3418,1.3418,0,0,0,0,0,0,0,0,1.3441,1.344,1.343,1.343,1.3431,1.3426,1.3423,1.3411,1.343,1.3431,1.3432,1.3433,1.3423,1.3422,1.3419,1.34,1.34,1.3418,1.3417,1.3417,1.3417,0,0,0,0,0,0,0,1.3442,1.344,1.3422,1.343,1.343,1.3433,1.3433,1.3421,1.3423,1.3431,1.3432,1.3431,1.3423,1.342,1.3419,1.34,1.3418,1.3417,1.3417,1.3416,1.3365,1.3365,0,0,0,0,0,0,1.3442,1.3441,1.3422,1.3421,1.3438,1.3432,1.3432,1.3426,1.3423,1.3423,1.343,1.3431,1.3421,1.342,1.3419,1.3395,1.3417,1.3416,1.3415,1.3366,1.3365,1.3364,0,0,0,0,0,0,1.3443,1.344,1.3422,1.3431,1.3429,1.3431,1.3425,1.3426,1.3423,1.3423,1.3423,1.3426,1.3422,1.342,1.3406,1.3395,1.3416,1.3415,1.3367,1.3366,1.3365,1.3348,0,0,0,0,0,0,1.3443,1.344,1.3433,1.3431,1.3429,1.3409,1.3424,1.3425,1.3421,1.3422,1.3419,1.3419,1.3422,1.3407,1.3405,1.3394,1.3414,1.3368,1.3367,1.3365,1.3349,1.3346,1.3344,0,0,0,0,0,1.3444,1.3427,1.3432,1.343,1.3419,1.3408,1.3407,1.3411,1.342,1.3412,1.3413,1.3419,1.3397,1.3405,1.3403,1.3392,1.3369,1.3367,1.3365,1.335,1.3347,1.3344,0,0,0,0,0,0,1.3427,1.3427,1.3432,1.3415,1.3412,1.3411,1.3401,1.3407,1.3401,1.3403,1.3408,1.3407,1.3392,1.339,1.34,1.3372,1.3384,1.3382,1.3374,1.337,1.3367,1.3368,1.3413,0,0,0,0,0,1.3421,1.3413,1.3413,1.3398,1.3396,1.3399,1.3394,1.3398,1.3395,1.3393,1.3393,1.3389,1.3381,1.3376,1.3368,1.3349,1.3349,1.3341,1.3338,1.3335,1.3333,1.3324,1.332,1.3359,1.3359,1.3359,0,0,1.3409,1.3408,1.3402,1.3394,1.3392,1.3383,1.3397,1.3387,1.3381,1.3392,1.3378,1.3378,1.3374,1.3357,1.335,1.3356,1.3323,1.3333,1.3331,1.3331,1.3322,1.3318,1.3315,1.3358,1.3358,1.3358,0,0,1.3382,1.338,1.3368,1.3366,1.3363,1.3365,1.3362,1.3361,1.3361,1.3348,1.3356,1.3349,1.3335,1.3332,1.3329,1.3303,1.3309,1.33,1.3285,1.3276,1.3273,1.327,1.3261,1.3258,1.3298,1.3298,1.3298,0,1.3366,1.3354,1.336,1.335,1.3346,1.3357,1.3344,1.3342,1.3336,1.3334,1.3341,1.3324,1.3323,1.3306,1.33,1.3297,1.3294,1.33,1.3273,1.327,1.3268,1.326,1.3256,1.3297,1.3297,1.3297,1.3297,0,1.3336,1.3327,1.3317,1.3313,1.3308,1.3296,1.3301,1.3296,1.33,1.3302,1.3289,1.3287,1.328,1.3277,1.3281,1.3261,1.3265,1.3272,1.3284,1.3263,1.3255,1.3252,1.3296,1.3296,1.3296,1.3297,0,0,1.3296,1.3297,1.3293,1.3292,1.329,1.3283,1.3273,1.3267,1.3262,1.3259,1.325,1.3239,1.3246,1.3243,1.3247,1.3239,1.3219,1.3247,1.3247,1.3242,1.3198,1.3192,1.3188,1.3223,1.3223,1.3222,1.3198,0,1.327,1.3252,1.3258,1.3239,1.3232,1.3243,1.3233,1.3232,1.3233,1.3227,1.3229,1.3221,1.3231,1.3229,1.3222,1.3223,1.321,1.3225,1.3215,1.3215,1.3216,1.3184,1.3178,1.3155,1.3195,1.3194,1.3194,0,1.3236,1.3232,1.3213,1.3215,1.3212,1.3203,1.3199,1.3193,1.3191,1.3193,1.319,1.3196,1.3186,1.3198,1.3184,1.3194,1.3191,1.3191,1.319,1.3189,1.3203,1.3182,1.3147,1.3144,1.3189,1.319,1.319,0,1.3209,1.32,1.3187,1.3186,1.3187,1.3181,1.3181,1.318,1.3176,1.3173,1.3171,1.3165,1.3162,1.3158,1.3163,1.3172,1.3149,1.3161,1.315,1.315,1.3144,1.3144,1.3109,1.3142,1.3142,1.3142,1.3142,0,1.3179,1.3167,1.3176,1.3168,1.3156,1.3163,1.315,1.3151,1.3151,1.3144,1.3153,1.3146,1.3152,1.3146,1.315,1.3138,1.3137,1.3138,1.3139,1.3137,1.3137,1.3135,1.3136,1.3141,1.3142,1.3142,1.3142,0,1.3147,1.3152,1.314,1.3142,1.3142,1.3133,1.3135,1.3128,1.3131,1.3122,1.3121,1.3125,1.3118,1.3123,1.3116,1.3118,1.3103,1.3106,1.3104,1.3105,1.3093,1.3094,1.3054,1.305,1.3086,1.3086,1.3086,0,1.3127,1.3118,1.312,1.3117,1.3116,1.311,1.3107,1.3114,1.3111,1.3109,1.3103,1.3097,1.3093,1.3082,1.3084,1.3079,1.3082,1.3069,1.3082,1.308,1.3082,1.3083,1.3082,1.3066,1.3066,1.3065,1.3065,0,1.3091,1.3095,1.309,1.3087,1.3083,1.3081,1.3079,1.3075,1.3083,1.3078,1.3072,1.3069,1.3063,1.3057,1.3053,1.3053,1.306,1.3061,1.3058,1.3056,1.3055,1.3056,1.3097,1.3062,1.3062,1.3062,1.3063,1.3063,1.3065,1.3058,1.3059,1.3054,1.3054,1.3052,1.3046,1.3049,1.3044,1.304,1.3045,1.3037,1.3037,1.3033,1.3032,1.3027,1.3032,1.3028,1.3027,1.3026,1.3024,1.3056,1.3026,1.3026,1.3026,1.3026,1.3026,0,1.303,1.3031,1.3027,1.3025,1.3021,1.3029,1.3028,1.3024,1.3018,1.3017,1.3013,1.3007,1.3002,1.3004,1.3,1.2995,1.2998,1.2994,1.2994,1.2994,1.3019,1.3022,1.2991,1.2991,1.2991,1.2991,1.2991,1.2991,1.3011,1.3001,1.3004,1.2994,1.2995,1.2989,1.2988,1.2987,1.2986,1.2979,1.2975,1.2977,1.2978,1.2974,1.297,1.2971,1.2969,1.2963,1.2966,1.2989,1.2992,1.2995,1.2998,1.2963,1.2963,1.2941,1.2941,1.2941]},{"header":{"parameterUnit":"m.s-1","parameterCategory":1,"la1":30.2991,"la2":30.254,"lo1":-89.0895,"lo2":-89.0444,"dy":0.0017,"dx":0.0017,"nx":28,"ny":28,"refTime":"2024-08-01T21:00:00:Z","depth":0,"parameterNumber":3,"parameterNumberName":"V-component_of_WINDS"},"data":[0,0,0,0,0,0,0,0,0,0,0,0,0,0,0,0,0,0,0,0,0,0,0,0,0,0,0,0,0,0,0,0,0,0,0,0,0,0,0,0,0,0,0,0,0,0,0,0,0,0,0,0,0,0,0,0,0,0,-1.3227,-1.3227,0,-1.3231,-1.3232,-1.3232,-1.3193,-1.3192,-1.3191,-1.319,-1.3193,-1.3194,-1.3195,0,0,0,0,0,0,0,0,0,0,0,0,0,-1.3187,-1.3188,-1.3227,-1.3227,-1.3228,-1.3231,-1.3232,-1.3232,-1.3193,-1.3192,-1.319,-1.3189,-1.3193,-1.3194,-1.3195,0,0,0,0,0,0,0,0,0,0,0,0,0,-1.3199,-1.3188,-1.3227,-1.3209,-1.3207,-1.3231,-1.3232,-1.3232,-1.3193,-1.3192,-1.319,-1.3189,-1.3192,-1.3194,-1.3195,-1.3237,0,0,-1.32,-1.3201,0,0,0,0,0,0,0,0,-1.3199,-1.3201,-1.3211,-1.321,-1.3208,-1.321,-1.3218,-1.3234,-1.3194,-1.3199,-1.319,-1.3188,-1.32,-1.3201,-1.3205,-1.3238,-1.3238,-1.32,-1.3201,-1.3202,-1.3203,0,0,0,0,0,0,0,-1.3198,-1.32,-1.3229,-1.3212,-1.321,-1.3201,-1.32,-1.3221,-1.3208,-1.3198,-1.3195,-1.3196,-1.3199,-1.3204,-1.3205,-1.3238,-1.32,-1.3202,-1.3203,-1.3204,-1.3308,-1.331,0,0,0,0,0,0,-1.3199,-1.32,-1.3229,-1.3229,-1.3199,-1.3203,-1.3202,-1.3211,-1.3208,-1.3206,-1.3198,-1.3194,-1.3202,-1.3203,-1.3205,-1.3256,-1.3202,-1.3204,-1.3205,-1.3306,-1.3309,-1.3311,0,0,0,0,0,0,-1.3199,-1.3202,-1.3229,-1.3214,-1.3216,-1.3205,-1.3215,-1.3212,-1.3217,-1.3208,-1.3205,-1.3205,-1.32,-1.3202,-1.323,-1.3256,-1.3204,-1.3206,-1.3304,-1.3307,-1.331,-1.3358,0,0,0,0,0,0,-1.3198,-1.3202,-1.3218,-1.3214,-1.3217,-1.3254,-1.3216,-1.3213,-1.322,-1.3216,-1.3214,-1.3212,-1.3199,-1.3228,-1.3232,-1.3257,-1.3207,-1.3302,-1.3306,-1.3309,-1.3354,-1.3362,-1.3368,0,0,0,0,0,-1.3196,-1.323,-1.3219,-1.3223,-1.3237,-1.3256,-1.3257,-1.3242,-1.3222,-1.3238,-1.3232,-1.3212,-1.3252,-1.3231,-1.3235,-1.3261,-1.33,-1.3305,-1.3308,-1.335,-1.336,-1.3368,0,0,0,0,0,0,-1.3236,-1.323,-1.3217,-1.325,-1.3254,-1.3249,-1.3268,-1.3253,-1.3262,-1.3257,-1.3238,-1.3238,-1.327,-1.3268,-1.3245,-1.3303,-1.3273,-1.3278,-1.3303,-1.3312,-1.3319,-1.332,-1.3208,0,0,0,0,0,-1.3249,-1.3265,-1.3258,-1.3289,-1.3291,-1.328,-1.3287,-1.3276,-1.3279,-1.328,-1.3276,-1.328,-1.3293,-1.3302,-1.3314,-1.3353,-1.3353,-1.3373,-1.338,-1.3386,-1.3391,-1.3414,-1.3424,-1.3324,-1.3324,-1.3324,0,0,-1.3275,-1.3274,-1.3285,-1.3297,-1.3298,-1.3316,-1.3281,-1.3301,-1.3314,-1.3283,-1.331,-1.3307,-1.331,-1.3344,-1.3359,-1.3344,-1.3419,-1.3391,-1.3396,-1.3398,-1.3419,-1.3429,-1.3437,-1.3327,-1.3326,-1.3326,0,0,-1.3333,-1.3333,-1.3359,-1.3362,-1.3365,-1.3358,-1.3364,-1.3362,-1.336,-1.3386,-1.3364,-1.338,-1.3403,-1.3406,-1.3411,-1.3473,-1.3455,-1.3477,-1.3516,-1.3539,-1.3546,-1.3553,-1.3578,-1.3586,-1.3482,-1.3482,-1.3482,0,-1.3365,-1.3391,-1.3375,-1.3397,-1.3404,-1.3377,-1.3405,-1.3408,-1.3415,-1.342,-1.3403,-1.3433,-1.3433,-1.3469,-1.3485,-1.3489,-1.3497,-1.3478,-1.3547,-1.3553,-1.356,-1.3582,-1.3591,-1.3485,-1.3485,-1.3484,-1.3484,0,-1.3432,-1.345,-1.3472,-1.348,-1.3489,-1.3514,-1.3502,-1.3513,-1.3502,-1.3496,-1.3525,-1.3524,-1.3537,-1.3544,-1.3532,-1.3579,-1.357,-1.355,-1.3519,-1.3572,-1.3594,-1.3602,-1.3489,-1.3488,-1.3487,-1.3486,0,0,-1.3514,-1.3515,-1.3523,-1.3528,-1.353,-1.3545,-1.3569,-1.3582,-1.3593,-1.3598,-1.3619,-1.3641,-1.3623,-1.3629,-1.3617,-1.3637,-1.3689,-1.3614,-1.3614,-1.363,-1.3744,-1.376,-1.377,-1.3677,-1.3678,-1.368,-1.3744,0,-1.3572,-1.3614,-1.3601,-1.3643,-1.3661,-1.3638,-1.3659,-1.3663,-1.3659,-1.3674,-1.367,-1.3686,-1.366,-1.3664,-1.3683,-1.3679,-1.3712,-1.3673,-1.3697,-1.3698,-1.3699,-1.3781,-1.3798,-1.3859,-1.3752,-1.3753,-1.3754,0,-1.3644,-1.3655,-1.37,-1.3702,-1.3709,-1.3728,-1.3741,-1.3755,-1.376,-1.3756,-1.3764,-1.3748,-1.3773,-1.3742,-1.3777,-1.3752,-1.376,-1.376,-1.3762,-1.3765,-1.373,-1.3788,-1.3877,-1.3887,-1.3767,-1.3766,-1.3765,0,-1.3703,-1.3728,-1.3759,-1.3763,-1.3765,-1.378,-1.3782,-1.3785,-1.3795,-1.3805,-1.3812,-1.3825,-1.3832,-1.3843,-1.3832,-1.381,-1.387,-1.3837,-1.3868,-1.3869,-1.3882,-1.3882,-1.3977,-1.3886,-1.3886,-1.3885,-1.3885,0,-1.377,-1.3798,-1.3785,-1.3804,-1.3836,-1.3822,-1.3854,-1.3853,-1.3857,-1.3876,-1.3855,-1.3873,-1.3857,-1.3875,-1.3866,-1.3898,-1.3901,-1.3899,-1.3897,-1.3902,-1.3902,-1.3908,-1.3905,-1.3888,-1.3887,-1.3887,-1.3886,0,-1.384,-1.3832,-1.3864,-1.3865,-1.3866,-1.389,-1.389,-1.3908,-1.3904,-1.3928,-1.3933,-1.3926,-1.3945,-1.3935,-1.3955,-1.3949,-1.3991,-1.3982,-1.399,-1.3988,-1.4021,-1.4019,-1.4124,-1.4138,-1.4036,-1.4037,-1.4038,0,-1.3884,-1.3906,-1.3909,-1.3921,-1.3925,-1.3943,-1.3954,-1.3941,-1.3952,-1.3961,-1.3979,-1.3996,-1.401,-1.4042,-1.4039,-1.4055,-1.4047,-1.4083,-1.4049,-1.4055,-1.405,-1.405,-1.4053,-1.409,-1.4091,-1.4092,-1.4093,0,-1.3963,-1.3959,-1.3975,-1.399,-1.4003,-1.4014,-1.4023,-1.4034,-1.4022,-1.4036,-1.4056,-1.4067,-1.4088,-1.4107,-1.4121,-1.4123,-1.4107,-1.4104,-1.4112,-1.4118,-1.4123,-1.4123,-1.401,-1.4101,-1.4101,-1.41,-1.4099,-1.4099,-1.4023,-1.4043,-1.4049,-1.4068,-1.4074,-1.4084,-1.4102,-1.41,-1.4117,-1.4134,-1.4125,-1.415,-1.4156,-1.4173,-1.4178,-1.4197,-1.4183,-1.4194,-1.4198,-1.4201,-1.4207,-1.4119,-1.4199,-1.4199,-1.4199,-1.4198,-1.4198,0,-1.4104,-1.4107,-1.4125,-1.4139,-1.4155,-1.4138,-1.4149,-1.4163,-1.4185,-1.4192,-1.4207,-1.4231,-1.425,-1.4249,-1.4266,-1.4282,-1.4275,-1.4287,-1.4287,-1.4288,-1.4217,-1.4209,-1.4293,-1.4293,-1.4292,-1.4292,-1.4292,-1.4292,-1.4147,-1.418,-1.4177,-1.4214,-1.4217,-1.4241,-1.4249,-1.4258,-1.4264,-1.4293,-1.4309,-1.4308,-1.4313,-1.4331,-1.4348,-1.4347,-1.4355,-1.437,-1.4367,-1.4302,-1.4292,-1.4283,-1.4276,-1.4372,-1.4372,-1.4436,-1.4437,-1.4437]}]]